TimeCDT,TemperatureF,Dew PointF,Humidity,Sea Level PressureIn,VisibilityMPH,Wind Direction,Wind SpeedMPH,Gust SpeedMPH,PrecipitationIn,Events,Conditions,WindDirDegrees,DateUTC
12:15 AM,28.6,24.6,85,29.98,7.0,West,11.5,-,N/A,,Overcast,270,2013-03-13 05:15:00
12:55 AM,28.0,23.7,84,29.98,10.0,West,13.8,17.3,N/A,,Overcast,280,2013-03-13 05:55:00
1:15 AM,28.0,21.7,77,29.99,10.0,WNW,13.8,-,N/A,,Overcast,290,2013-03-13 06:15:00
1:35 AM,27.7,21.7,78,29.99,10.0,West,11.5,-,N/A,,Overcast,280,2013-03-13 06:35:00
1:55 AM,27.3,24.1,88,29.99,3.0,West,11.5,-,N/A,,Overcast,280,2013-03-13 06:55:00
2:15 AM,26.6,23.9,90,29.99,7.0,West,15.0,20.7,N/A,,Scattered Clouds,280,2013-03-13 07:15:00
2:35 AM,25.9,23.0,89,30.00,7.0,West,12.7,-,N/A,,Scattered Clouds,280,2013-03-13 07:35:00
2:55 AM,25.9,23.2,90,30.00,7.0,West,11.5,-,N/A,,Mostly Cloudy,280,2013-03-13 07:55:00
3:15 AM,26.1,23.7,91,30.00,4.0,WNW,13.8,-,N/A,,Overcast,290,2013-03-13 08:15:00
3:35 AM,25.9,23.7,92,30.00,7.0,West,15.0,-,N/A,,Overcast,280,2013-03-13 08:35:00
3:55 AM,25.9,23.4,90,30.00,10.0,West,9.2,-,N/A,,Overcast,280,2013-03-13 08:55:00
4:15 AM,25.9,23.0,89,30.00,10.0,West,11.5,-,N/A,,Overcast,280,2013-03-13 09:15:00
4:35 AM,26.2,22.3,85,30.01,10.0,West,12.7,-,N/A,,Overcast,280,2013-03-13 09:35:00
4:55 AM,26.2,22.1,84,30.02,5.0,WNW,12.7,18.4,N/A,,Overcast,290,2013-03-13 09:55:00
5:15 AM,26.1,22.8,88,30.03,4.0,West,10.4,16.1,N/A,,Overcast,280,2013-03-13 10:15:00
5:35 AM,25.7,23.0,89,30.03,3.0,West,13.8,-,N/A,,Overcast,280,2013-03-13 10:35:00
5:55 AM,25.7,23.0,89,30.04,4.0,West,11.5,-,N/A,,Overcast,280,2013-03-13 10:55:00
6:15 AM,25.7,23.0,89,30.05,7.0,WNW,10.4,-,N/A,,Overcast,290,2013-03-13 11:15:00
6:35 AM,25.7,23.2,90,30.06,2.0,WNW,10.4,16.1,N/A,,Overcast,300,2013-03-13 11:35:00
6:55 AM,25.7,22.6,88,30.07,7.0,WNW,13.8,18.4,N/A,,Overcast,300,2013-03-13 11:55:00
7:15 AM,25.9,19.6,77,30.07,10.0,WNW,12.7,-,N/A,,Overcast,300,2013-03-13 12:15:00
7:35 AM,25.5,18.9,76,30.08,10.0,NW,19.6,25.3,N/A,,Overcast,310,2013-03-13 12:35:00
7:55 AM,25.3,18.3,75,30.10,10.0,NW,15.0,23.0,N/A,,Overcast,320,2013-03-13 12:55:00
8:15 AM,24.6,16.7,72,30.10,10.0,NW,16.1,23.0,N/A,,Mostly Cloudy,310,2013-03-13 13:15:00
8:35 AM,24.6,16.7,72,30.12,10.0,WNW,13.8,23.0,N/A,,Mostly Cloudy,300,2013-03-13 13:35:00
8:55 AM,24.8,17.2,73,30.12,7.0,NW,18.4,-,N/A,,Overcast,310,2013-03-13 13:55:00
9:15 AM,25.2,18.1,75,30.13,10.0,NW,15.0,20.7,N/A,,Overcast,310,2013-03-13 14:15:00
9:35 AM,25.5,17.8,72,30.14,10.0,NW,17.3,24.2,N/A,,Overcast,310,2013-03-13 14:35:00
9:55 AM,25.3,17.2,71,30.15,10.0,NW,17.3,29.9,N/A,,Mostly Cloudy,320,2013-03-13 14:55:00
10:15 AM,25.9,17.2,70,30.15,10.0,NW,19.6,25.3,N/A,,Mostly Cloudy,310,2013-03-13 15:15:00
10:35 AM,26.2,17.1,68,30.16,10.0,NW,20.7,31.1,N/A,,Overcast,320,2013-03-13 15:35:00
11:15 AM,27.0,17.4,67,30.18,10.0,NW,18.4,26.5,N/A,,Mostly Cloudy,320,2013-03-13 16:15:00
11:35 AM,26.8,17.4,68,30.19,10.0,WNW,21.9,26.5,N/A,,Mostly Cloudy,300,2013-03-13 16:35:00
11:55 AM,26.6,17.6,69,30.20,10.0,NW,18.4,26.5,N/A,,Overcast,310,2013-03-13 16:55:00
12:15 PM,26.6,16.7,66,30.20,10.0,WNW,17.3,23.0,N/A,,Overcast,300,2013-03-13 17:15:00
12:35 PM,27.3,17.6,67,30.21,10.0,NW,19.6,25.3,N/A,,Overcast,310,2013-03-13 17:35:00
12:55 PM,27.5,17.6,66,30.22,10.0,WNW,17.3,-,N/A,,Mostly Cloudy,300,2013-03-13 17:55:00
1:15 PM,28.0,18.5,67,30.22,10.0,NW,18.4,24.2,N/A,,Overcast,310,2013-03-13 18:15:00
1:35 PM,27.9,18.3,67,30.23,10.0,NW,16.1,23.0,N/A,,Overcast,310,2013-03-13 18:35:00
1:55 PM,27.9,18.9,69,30.23,10.0,NW,16.1,24.2,N/A,,Overcast,320,2013-03-13 18:55:00
2:15 PM,28.9,18.9,66,30.23,10.0,NW,12.7,-,N/A,,Overcast,310,2013-03-13 19:15:00
2:35 PM,29.8,18.7,63,30.22,10.0,NW,15.0,24.2,N/A,,Mostly Cloudy,320,2013-03-13 19:35:00
2:55 PM,30.2,17.8,60,30.23,10.0,NW,16.1,20.7,N/A,,Scattered Clouds,310,2013-03-13 19:55:00
3:15 PM,31.5,18.1,58,30.23,10.0,NW,17.3,24.2,N/A,,Scattered Clouds,310,2013-03-13 20:15:00
3:35 PM,31.8,18.1,57,30.23,10.0,NNW,17.3,23.0,N/A,,Scattered Clouds,330,2013-03-13 20:35:00
3:55 PM,32.0,17.1,54,30.24,10.0,NNW,17.3,-,N/A,,Clear,330,2013-03-13 20:55:00
4:15 PM,32.0,15.3,50,30.25,10.0,NW,17.3,25.3,N/A,,Clear,320,2013-03-13 21:15:00
4:35 PM,32.0,12.9,45,30.25,10.0,NNW,16.1,-,N/A,,Clear,330,2013-03-13 21:35:00
4:55 PM,32.0,12.7,45,30.26,10.0,NNW,15.0,-,N/A,,Clear,340,2013-03-13 21:55:00
5:15 PM,32.0,12.7,45,30.26,10.0,NNW,15.0,20.7,N/A,,Clear,340,2013-03-13 22:15:00
5:35 PM,31.6,12.4,45,30.27,10.0,NNW,13.8,20.7,N/A,,Clear,330,2013-03-13 22:35:00
5:55 PM,31.3,12.9,47,30.27,10.0,NNW,12.7,20.7,N/A,,Clear,330,2013-03-13 22:55:00
6:15 PM,30.9,13.5,48,30.27,10.0,NNW,11.5,-,N/A,,Clear,330,2013-03-13 23:15:00
6:35 PM,30.0,12.2,48,30.27,10.0,NNW,10.4,-,N/A,,Clear,340,2013-03-13 23:35:00
6:55 PM,29.3,12.2,49,30.28,10.0,NNW,9.2,-,N/A,,Clear,330,2013-03-13 23:55:00
7:15 PM,28.4,14.4,56,30.28,10.0,NNW,6.9,-,N/A,,Clear,330,2013-03-14 00:15:00
7:35 PM,27.5,15.6,61,30.28,10.0,NNW,5.8,-,N/A,,Clear,330,2013-03-14 00:35:00
7:55 PM,27.0,17.4,67,30.28,10.0,NW,5.8,-,N/A,,Clear,320,2013-03-14 00:55:00
8:15 PM,26.6,18.3,71,30.28,10.0,NW,4.6,-,N/A,,Clear,310,2013-03-14 01:15:00
8:35 PM,27.3,18.0,68,30.28,10.0,WNW,4.6,-,N/A,,Clear,300,2013-03-14 01:35:00
8:55 PM,27.9,17.6,65,30.28,10.0,WNW,3.5,-,N/A,,Clear,290,2013-03-14 01:55:00
9:15 PM,27.0,18.1,69,30.29,10.0,Calm,Calm,-,N/A,,Clear,0,2013-03-14 02:15:00
9:35 PM,26.4,18.5,72,30.30,10.0,West,5.8,-,N/A,,Clear,260,2013-03-14 02:35:00
9:55 PM,26.1,18.3,73,30.30,10.0,West,5.8,-,N/A,,Clear,260,2013-03-14 02:55:00
10:15 PM,26.4,18.5,72,30.30,10.0,WSW,6.9,-,N/A,,Clear,250,2013-03-14 03:15:00
10:35 PM,27.0,18.5,70,30.30,10.0,West,9.2,-,N/A,,Clear,280,2013-03-14 03:35:00
10:55 PM,27.5,17.6,66,30.30,10.0,West,8.1,-,N/A,,Clear,270,2013-03-14 03:55:00
11:15 PM,27.1,17.6,67,30.30,10.0,WNW,10.4,-,N/A,,Clear,290,2013-03-14 04:15:00
11:35 PM,26.8,17.6,68,30.29,10.0,West,8.1,-,N/A,,Clear,280,2013-03-14 04:35:00
11:55 PM,26.6,17.4,68,30.29,10.0,West,8.1,-,N/A,,Clear,280,2013-03-14 04:55:00